Home   Weather   Yokosuka   Past weeks
Flag for Japan

Past Weather in Yokosuka, Japan — Yesterday and Last 2 Weeks

Now
52 °F

Passing clouds.


Feels Like: 48 °F
Forecast: 49 / 42 °F
Wind: 10 mph from South

Location: Tokyo International Airport

Current Time: Jan 17, 2019 at 6:03:10 pm

Latest Report: Jan 17, 2019 at 5:30 pm


Visibility: N/A

Pressure: 29.74 "Hg

Humidity: 54%

Dew Point: 36 °F

Location of YokosukaLocation

Past Weather in Yokosuka — Graph

°F

Yokosuka Temperature Yesterday

Maximum temperature yesterday: 54 °F (at 12:00 am)
Minimum temperature yesterday: 43 °F (at 3:00 am)
Average temperature yesterday: 47 °F

High & Low Weather Summary for the Past Weeks

 TemperatureHumidityPressure
High55 °F (Jan 5, 1:00 pm)87% (Jan 12, 7:30 pm)30.42 "Hg (Jan 12, 7:30 pm)
Low34 °F (Jan 11, 3:00 am)20% (Jan 7, 2:00 pm)29.74 "Hg (Jan 16, 3:30 am)
Average44 °F52%30.06 "Hg
* Reported Jan 2 5:00 pm — Jan 17 5:00 pm, Yokosuka. Weather by CustomWeather, © 2019

Note: Actual official high and low records may vary slightly from our data, if they occured in-between our weather recording intervals... More about our weather records

Advertising

Yokosuka Weather History for the Previous 24 Hours

Scroll right to see more
 ConditionsComfort  
Time TempWeatherWind HumidityBarometerVisibility
5:00 pm
Thu, Jan 17
50 °FPassing clouds.10 mph54%29.74 "HgN/A
4:30 pm52 °FPassing clouds.12 mph50%29.74 "HgN/A
4:00 pm52 °FPassing clouds.12 mph50%29.74 "HgN/A
3:30 pm52 °FPassing clouds.14 mph54%29.74 "HgN/A
3:00 pm52 °FPassing clouds.12 mph47%29.74 "HgN/A
2:30 pm52 °FPassing clouds.10 mph47%29.74 "HgN/A
2:00 pm52 °FPassing clouds.14 mph44%29.74 "HgN/A
1:30 pm52 °FPassing clouds.14 mph44%29.74 "HgN/A
1:00 pm52 °FPassing clouds.12 mph44%29.77 "HgN/A
12:30 pm50 °FPassing clouds.12 mph40%29.80 "HgN/A
12:00 pm50 °FPassing clouds.12 mph40%29.80 "HgN/A
11:30 am50 °FPassing clouds.14 mph43%29.83 "HgN/A
11:00 am48 °FScattered clouds.9 mph43%29.86 "HgN/A
10:30 am48 °FPartly sunny.8 mph40%29.89 "HgN/A
10:00 am46 °FPartly sunny.6 mph37%29.89 "HgN/A
9:30 am45 °FPartly sunny.3 mph42%29.89 "HgN/A
9:00 am43 °FScattered clouds.2 mph46%29.89 "HgN/A
8:30 am43 °FScattered clouds.2 mph46%29.92 "HgN/A
8:00 am41 °FPartly sunny.2 mph42%29.92 "HgN/A
7:30 am41 °FPartly sunny.2 mph45%29.92 "HgN/A
7:00 am41 °FPartly sunny.6 mph49%29.92 "HgN/A
6:30 am41 °FPassing clouds.9 mph42%29.89 "HgN/A
6:00 am41 °FPassing clouds.10 mph42%29.92 "HgN/A
5:30 am41 °FPassing clouds.13 mph45%29.89 "HgN/A
5:00 am41 °FPartly cloudy.13 mph49%29.89 "HgN/A
4:30 am41 °FPartly cloudy.13 mph45%29.92 "HgN/A
4:00 am43 °FPassing clouds.15 mph49%29.92 "HgN/A
3:30 am43 °FPartly cloudy.13 mph42%29.92 "HgN/A
3:00 am43 °FPartly cloudy.12 mph42%29.92 "HgN/A
2:30 am43 °FPassing clouds.16 mph46%29.92 "HgN/A
2:00 am43 °FPassing clouds.15 mph46%29.92 "HgN/A
1:30 am43 °FPassing clouds.16 mph46%29.92 "HgN/A
1:00 am43 °FPassing clouds.15 mph46%29.92 "HgN/A
12:30 am43 °FPassing clouds.17 mph46%29.92 "HgN/A
12:00 am43 °FPassing clouds.16 mph46%29.95 "HgN/A
11:30 pm
Wed, Jan 16
43 °FPassing clouds.16 mph49%29.95 "HgN/A
11:00 pm43 °FPassing clouds.16 mph49%29.95 "HgN/A
10:30 pm45 °FPassing clouds.16 mph46%29.95 "HgN/A
10:00 pm45 °FPartly cloudy.16 mph46%29.95 "HgN/A
9:30 pm45 °FPartly cloudy.17 mph42%29.95 "HgN/A
9:00 pm45 °FPartly cloudy.17 mph42%29.95 "HgN/A
8:30 pm46 °FPassing clouds.16 mph37%29.95 "HgN/A
8:00 pm46 °FPassing clouds.20 mph34%29.95 "HgN/A
7:30 pm46 °FPassing clouds.20 mph37%29.95 "HgN/A
7:00 pm46 °FPassing clouds.14 mph37%29.95 "HgN/A
6:30 pm48 °FPassing clouds.15 mph40%29.92 "HgN/A
6:00 pm48 °FPassing clouds.17 mph40%29.92 "HgN/A
Weather by CustomWeather, © 2019

See weather overview